Current weather by "City, St" or "zip code"  
 
Advertise Here

Current Conditions: Lexington Blue Grass Airport, KY

Overcast


60.0 F

Last Updated on Feb 28 2021, 7:54 am EST
Humidity: 93%
Wind Speed: S 13.8 mph
Barometer 29.88 in
Dewpoint: 57.9 F
Visibility: 10.00 mi
Precip: Trace
Heat Index: NA
Wind Chill: 58 F
Current conditions at:

Lexington Blue Grass Airport, KY (KLEX)

Lat: 38.0339 Lon: 84.61146

Local Radar Image active severe weather and emergency alerts image image weather storm and storm spotter reports image weather observation monitoring service image
Local
Radar
Active
Alerts
Storm Reports Obs
Monitoring

Sign-up For Email & Text Message Weather Alert Notification Services


Advertise Here

Observation History for Lexington Blue Grass Airport, KY


Time Wind
(mph)
Vis
(mi)
Weather Precip (in) Temperature (F) Relative
Humidity
Wind
Chill
(F)
Heat
Index
(F)
Pressure
Air Dwpt altimeter
(in)
sea level
(mb)
Rmks
7:54 am EST S 13.8 10.00 Overcast Trace 60.0 57.9 93% 58 NA 29.88 1011.4
6:54 am EST SE 11.5 10.00 Overcast 00.03 56.0 55.0 97% 53 NA 29.89 1012.1
5:54 am EST SE 10.4 10.00 Light Rain 00.02 55.0 54.0 96% 52 NA 29.92 1013.1
4:54 am EST SE 6.9 9.00 Rain -- 55.0 55.0 100% 53 NA 29.95 1013.9
3:54 am EST SE 6.9 4.00 Rain Fog/Mist 00.09 55.0 54.0 96% 53 NA 30.00 1015.6
2:54 am EST SE 6.9 10.00 Light Rain 00.05 55.0 54.0 96% 53 NA 30.03 1016.6
1:54 am EST S 6.9 6.00 Rain Fog/Mist 00.05 54.0 53.1 97% 52 NA 30.05 1017.3
12:54 am EST SE 9.2 4.00 Rain Fog/Mist 00.13 54.0 53.1 97% 51 NA 30.05 1017.4
11:54 pm EST S 9.2 8.00 Light Rain 00.02 53.0 51.1 93% 50 NA 30.08 1018.6
10:54 pm EST SE 15.0 G 24.2 10.00 Light Rain 00.01 53.0 51.1 93% 48 NA 30.06 1017.9
9:54 pm EST SE 6.9 10.00 Overcast Trace 52.0 48.9 89% 50 NA 30.09 1018.8
8:54 pm EST E 11.5 10.00 Light Rain Trace 52.0 48.0 86% 48 NA 30.12 1019.8
7:54 pm EST E 5.8 10.00 Light Rain Trace 52.0 46.9 83% 50 NA 30.14 1020.6
6:54 pm EST E 3.5 10.00 Mostly Cloudy -- 53.0 46.9 80% NA NA 30.13 1020.4
5:54 pm EST E 4.6 10.00 Overcast -- 54.0 48.0 80% 53 NA 30.12 1019.9
4:54 pm EST N 0.0 10.00 Mostly Cloudy -- 54.0 46.9 77% NA NA 30.13 1020.1
3:54 pm EST SE 4.6 10.00 Partly Cloudy -- 54.0 46.9 77% 53 NA 30.11 1019.6
2:54 pm EST 10.00 Mostly Cloudy -- 53.0 46.9 80% NA NA 30.11 1019.5
1:54 pm EST S 8.1 10.00 Mostly Cloudy -- 51.0 46.0 83% 48 NA 30.11 1019.8
12:54 pm EST N 0.0 10.00 Overcast -- 52.0 45.0 77% NA NA 30.15 1021.0
11:54 am EST NW 5.8 10.00 Overcast -- 49.0 45.0 86% 47 NA 30.15 1021.1
10:54 am EST NW 5.8 9.00 Overcast -- 48.0 46.0 93% 45 NA 30.14 1020.8
9:54 am EST NW 9.2 G 20.7 10.00 Overcast -- 48.0 46.0 93% 44 NA 30.10 1019.6
8:54 am EST W 9.2 9.00 Overcast -- 50.0 48.0 93% 46 NA 30.06 1018.1

Regional Weather Observation


Lexington Blue Grass Airport, KY (KLEX)

Overcast
60.0 F

Georgetown Scott County Regional Airport, KY (K27K)

Overcast
54.0 F

Louisville, Bowman Field Airport, KY (KLOU)

Light Rain Fog/Mist
58.0 F

Louisville Muhammad Ali International Airport, KY (KSDF)

Light Rain Fog/Mist
57.0 F

Madison Municipal Airport, IN (KIMS)

Overcast
54.0 F

Clark Regional Airport, IN (KJVY)

Rain
56.0 F
Advertise Here

Advertise Here